Flag Weather past 2 weeks in Kodiak, Alaska, U.S.A.

Now
28 °F

Passing clouds.


Feels Like: 21 °F
Forecast: 36 / 39 °F
Wind: 7 mph from West

Location: Kodiak Weather Reporting Station

Current Time: Nov 26, 2014 at 1:21:18 AM

Latest Report: Nov 26, 2014 at 12:53 AM


Visibility: 10 mi

Pressure: 30.33 "Hg

Humidity: 96%

Dew point: 27 °F

Location of KodiakLocation

Historic Weather in Kodiak — Graph

°F

Kodiak temperature yesterday

Maximum temperature yesterday: 41 °F (at 2:53 AM)
Minimum temperature yesterday: 28 °F (at 9:53 PM)
Average temperature yesterday: 35 °F

Past Weeks' High & Low Weather Summary

 TemperatureHumidityPressure
High49 °F (Nov 11, 12:53 PM)100% (Nov 10, 11:53 PM)30.33 "Hg (Nov 10, 11:53 PM)
Low28 °F (Nov 25, 9:53 PM)68% (Nov 18, 3:53 PM)28.69 "Hg (Nov 21, 8:53 AM)
Average42 °F92%29.59 "Hg
* Reported Nov 10 11:53 PM — Nov 25 11:53 PM, Kodiak, Weather by CustomWeather, © 2014

Note: Actual official high and low records may vary slightly from our data, if they occured in-between our weather recording intervals... More about our weather records

Advertising

Kodiak weather history for previous 24 hours

 ConditionsComfort  
Time TempWeatherWind HumidityBarometerVisibility
11:53 PM
Nov 25
29 °FPassing clouds.5 mph93%30.33 "Hg10 mi
10:53 PM29 °FPassing clouds.8 mph93%30.32 "Hg10 mi
9:53 PM28 °FClear.7 mph96%30.31 "Hg10 mi
8:53 PM29 °FClear.6 mph96%30.30 "Hg10 mi
7:53 PM31 °FClear.7 mph92%30.30 "Hg10 mi
6:53 PM31 °FClear.6 mph96%30.29 "Hg10 mi
5:53 PM31 °FClear.7 mph96%30.28 "Hg10 mi
4:53 PM32 °FPassing clouds.6 mph92%30.27 "Hg10 mi
3:53 PM34 °FPassing clouds.6 mph88%30.26 "Hg10 mi
2:53 PM41 °FPassing clouds.5 mph74%30.25 "Hg10 mi
1:53 PM41 °FSunny.5 mph76%30.26 "Hg10 mi
12:53 PM41 °FPassing clouds.No wind74%30.25 "Hg10 mi
11:53 AM38 °FScattered clouds.3 mph83%30.24 "Hg10 mi
10:53 AM35 °FScattered clouds.6 mph88%30.23 "Hg10 mi
9:53 AM33 °FPartly sunny.7 mph92%30.21 "Hg10 mi
8:53 AM32 °FPassing clouds.7 mph92%30.18 "Hg10 mi
7:53 AM34 °FPassing clouds.5 mph92%30.16 "Hg10 mi
6:53 AM35 °FPassing clouds.3 mph92%30.14 "Hg10 mi
5:53 AM38 °FPassing clouds.5 mph90%30.11 "Hg10 mi
4:53 AM40 °FOvercast.5 mph86%30.08 "Hg10 mi
3:53 AM40 °FOvercast.9 mph86%30.06 "Hg10 mi
2:53 AM41 °FOvercast.7 mph80%30.04 "Hg10 mi
1:53 AM40 °FOvercast.8 mph83%30.01 "Hg10 mi
Weather by CustomWeather, © 2014

See weather overviewHow to use our weather pages